Weather History for Juliana Airport, St. Martin

Change the Weather History Date:

Friday, January 27, 2012

  Actual Average Record
Temperature  
Mean Temperature 78 °F -  
Max Temperature 82 °F 81 °F 86 °F (2001)
Min Temperature 73 °F 72 °F 68 °F (2007)
Cooling Degree Days 12    
Growing Degree Days 28 (Base 50)    
Moisture  
Dew Point 63 °F    
Average Humidity 60    
Maximum Humidity 69    
Minimum Humidity 43    
Precipitation  
Precipitation 0.00 in 0.06 in - ()
Sea Level Pressure  
Sea Level Pressure 30.06 in    
Wind  
Wind Speed 12 mph ()    
Max Wind Speed 20 mph    
Max Gust Speed 29 mph    
Visibility 7.2 miles    
Events      
Averages and records for this station are not official NWS values.
T = Trace of Precipitation, MM = Missing Value Source: Averaged Metar Reports

Daily Weather History Graph

Daily Weather History Graph

Search for Another Location

Airport:

Trip Planner

Search our weather history database for the weather conditions in past years. The results will help you decide how hot, cold, wet, or windy it might be!

Date:

Astronomy

Jan. 27, 2012 Rise Set
Actual Time 6:46 AM AST 6:03 PM AST
Civil Twilight 6:23 AM AST 6:26 PM AST
Nautical Twilight 5:57 AM AST 6:53 PM AST
Astronomical Twilight 5:31 AM AST 7:19 PM AST
Moon 9:25 AM AST (1/27) 9:58 PM AST (1/27)
Length of Visible Light 12h 03m
Length of Day
11h 17m
Waxing Crescent, 19% of the Moon is Illuminated
Jan 27
Waxing Crescent
Jan 31
First Quarter
Feb 7
Full
Feb 14
Last Quarter
Feb 21
New

Hourly Weather History & Observations

Time (AST) Temp. Heat Index Dew Point Humidity Pressure Visibility Wind Dir Wind Speed Gust Speed Precip Events Conditions
12:00 AM 75.2 °F - 62.6 °F 65% 30.04 in 6.2 mi East 12.7 mph - N/A   Partly Cloudy
1:00 AM 75.2 °F - 62.6 °F 65% 30.04 in 6.2 mi East 12.7 mph - N/A   Partly Cloudy
2:00 AM 75 °F - 62 °F 55% 30.04 in 31 mi East 13.8 mph - -   Scattered Clouds
2:00 AM 75.2 °F - 62.6 °F 65% 30.04 in 6.2 mi East 12.7 mph - N/A   Partly Cloudy
3:00 AM 73.4 °F - 60.8 °F 65% 30.01 in 6.2 mi East 11.5 mph - N/A   Partly Cloudy
4:00 AM 75.2 °F - 62.6 °F 65% 30.01 in 6.2 mi East 13.8 mph - N/A   Partly Cloudy
5:00 AM 75 °F - 62 °F 55% 30.04 in 31 mi East 17.3 mph - -   Scattered Clouds
5:00 AM 75.2 °F - 62.6 °F 65% 30.04 in 6.2 mi East 17.3 mph - N/A   Partly Cloudy
6:00 AM 75.2 °F - 60.8 °F 61% 30.04 in 6.2 mi East 12.7 mph - N/A   Partly Cloudy
7:00 AM 75.2 °F - 60.8 °F 61% 30.06 in 6.2 mi East 13.8 mph - N/A   Partly Cloudy
8:00 AM 77 °F - 64 °F 56% 30.08 in 31 mi East 15.0 mph - -   Scattered Clouds
8:00 AM 75.2 °F - 64.4 °F 69% 30.06 in 6.2 mi East 15.0 mph - N/A   Partly Cloudy
9:00 AM 78.8 °F - 62.6 °F 57% 30.09 in 6.2 mi East 18.4 mph - N/A   Partly Cloudy
10:00 AM 80.6 °F 81.5 °F 60.8 °F 51% 30.09 in 6.2 mi East 13.8 mph - N/A   Partly Cloudy
11:00 AM 80 °F - 61 °F 43% 30.10 in 34 mi East 19.6 mph - -   Scattered Clouds
11:00 AM 80.6 °F 81.5 °F 60.8 °F 51% 30.09 in 6.2 mi East 19.6 mph - N/A   Partly Cloudy
12:00 PM 80.6 °F 81.8 °F 62.6 °F 54% 30.06 in 6.2 mi ESE 13.8 mph 28.8 mph N/A   Partly Cloudy
1:00 PM 80.6 °F 82.3 °F 64.4 °F 58% 30.06 in 6.2 mi ESE 13.8 mph - N/A   Partly Cloudy
2:00 PM 80 °F - 65 °F 51% 30.04 in 34 mi SE 13.8 mph - -   Scattered Clouds
2:00 PM 80.6 °F 82.3 °F 64.4 °F 58% 30.04 in 6.2 mi ESE 13.8 mph - N/A   Partly Cloudy
3:00 PM 80.6 °F 82.3 °F 64.4 °F 58% 30.01 in 6.2 mi East 15.0 mph - N/A   Scattered Clouds
4:00 PM 78.8 °F - 66.2 °F 65% 30.01 in 6.2 mi East 12.7 mph - N/A   Scattered Clouds
5:00 PM 78 °F - 67 °F 61% 30.04 in 34 mi East 11.5 mph - -   Partly Cloudy
5:00 PM 78.8 °F - 68.0 °F 69% 30.04 in 6.2 mi ENE 11.5 mph - N/A   Scattered Clouds
6:00 PM 77.0 °F - 66.2 °F 69% 30.04 in 6.2 mi East 11.5 mph - N/A   Scattered Clouds
7:00 PM 77.0 °F - 66.2 °F 69% 30.06 in 6.2 mi East 11.5 mph - N/A   Partly Cloudy
8:00 PM 77 °F - 64 °F 56% 30.09 in 19 mi East 13.8 mph - -   Scattered Clouds
8:00 PM - - - N/A% 30.09 in 6.2 mi East 12.7 mph - N/A   Partly Cloudy
9:00 PM 77.0 °F - 64.4 °F 65% 30.09 in 6.2 mi East 12.7 mph - N/A   Partly Cloudy
10:00 PM 77.0 °F - 62.6 °F 61% 30.09 in 6.2 mi East 11.5 mph - N/A   Partly Cloudy
11:00 PM 76 °F - 64 °F 57% 30.11 in 19 mi East 11.5 mph - -   Scattered Clouds
11:00 PM 77.0 °F - 64.4 °F 65% 30.09 in 6.2 mi East 11.5 mph - N/A   Partly Cloudy